Change the Weather History Date:

Sunday, March 24, 2013

  Actual Average (EDQM) Record (EDQM)
Temperature  
Mean Temperature 20 °F -  
Max Temperature 28 °F 44 °F 59 °F (2003)
Min Temperature 12 °F 31 °F 14 °F (2013)
Degree Days  
Heating Degree Days 45    
Moisture  
Dew Point 5 °F    
Average Humidity 52    
Maximum Humidity 73    
Minimum Humidity 37    
Precipitation  
Precipitation 0.00 in - - ()
Sea Level Pressure  
Sea Level Pressure 29.98 in    
Wind  
Wind Speed 13 mph ()    
Max Wind Speed 22 mph    
Max Gust Speed 33 mph    
Visibility 6.2 miles    
Events      
Averages and records for this station are not official NWS values.
T = Trace of Precipitation, MM = Missing Value Source: Averaged Metar Reports

Daily Weather History Graph

Daily Weather History Graph

Search for Another Location

Airport or City:

Trip Planner

Search our weather history database for the weather conditions in past years. The results will help you decide how hot, cold, wet, or windy it might be!

Date:

Astronomy

Mar. 24, 2013 Rise Set
Actual Time 6:02 AM CET 6:27 PM CET
Civil Twilight 5:29 AM CET 7:00 PM CET
Nautical Twilight 4:51 AM CET 7:39 PM CET
Astronomical Twilight 4:11 AM CET 8:19 PM CET
Moon 3:24 PM CET (3/24) 4:19 AM CET (3/24)
Length of Visible Light 13h 30m
Length of Day
12h 25m
Waxing Gibbous, 90% of the Moon is Illuminated
Mar 24
Waxing Gibbous
Mar 27
Full
Apr 3
Last Quarter
Apr 10
New
Apr 18
First Quarter

Hourly Weather History & Observations

Time (CET) Temp. Windchill Dew Point Humidity Pressure Visibility Wind Dir Wind Speed Gust Speed Precip Events Conditions
12:00 AM 14.0 °F -0.8 °F 5.0 °F 67% 30.04 in - ENE 13.8 mph - N/A   Clear
1:00 AM 14.0 °F 0.5 °F 5.0 °F 67% 30.04 in - ENE 11.5 mph - N/A   Clear
2:00 AM 12.2 °F -1.8 °F 5.0 °F 73% 30.04 in - ENE 11.5 mph - N/A   Clear
3:00 AM 12.2 °F -2.5 °F 3.2 °F 67% 30.01 in - ENE 12.7 mph - N/A   Clear
4:00 AM 12.2 °F -1.8 °F 3.2 °F 67% 30.01 in - ENE 11.5 mph - N/A   Clear
5:00 AM 12.2 °F -1.0 °F 3.2 °F 67% 30.01 in - ENE 10.4 mph - N/A   Clear
6:00 AM 12.2 °F -0.2 °F 3.2 °F 67% 30.01 in - ENE 9.2 mph - N/A   Clear
7:00 AM 12.2 °F -0.2 °F 3.2 °F 67% 30.01 in - ENE 9.2 mph - N/A   Clear
7:30 AM 12.2 °F -0.2 °F 3.2 °F 67% 30.01 in - NE 9.2 mph - N/A   Clear
8:00 AM 14.0 °F 2.0 °F 1.4 °F 57% 30.01 in - ENE 9.2 mph - N/A   Clear
8:30 AM 14.0 °F 1.2 °F 3.2 °F 62% 30.01 in - ENE 10.4 mph - N/A   Clear
9:00 AM 15.8 °F -0.2 °F 1.4 °F 53% 30.01 in - East 17.3 mph - N/A   Clear
9:30 AM 15.8 °F 2.1 °F 1.4 °F 53% 30.01 in - ENE 12.7 mph - N/A   Clear
10:00 AM 17.6 °F 3.7 °F 1.4 °F 49% 30.01 in - East 13.8 mph - N/A   Clear
10:30 AM 19.4 °F 4.1 °F 3.2 °F 49% 30.01 in - ENE 18.4 mph - N/A   Clear
11:00 AM 21.2 °F 7.3 °F 1.4 °F 42% 30.01 in - ENE 16.1 mph - N/A   Clear
11:30 AM 23.0 °F 9.6 °F 3.2 °F 43% 29.98 in - ENE 16.1 mph - N/A   Clear
12:00 PM 23.0 °F 10.1 °F 3.2 °F 43% 29.98 in - ENE 15.0 mph - N/A   Clear
12:30 PM 24.8 °F 11.1 °F 5.0 °F 43% 29.98 in - ENE 18.4 mph - N/A   Clear
1:00 PM 26.6 °F 13.8 °F 5.0 °F 40% 29.98 in - ENE 17.3 mph - N/A   Clear
1:30 PM 28.4 °F 15.8 °F 5.0 °F 37% 29.95 in - ENE 18.4 mph - N/A   Clear
2:00 PM 26.6 °F 13.4 °F 5.0 °F 40% 29.95 in - ENE 18.4 mph - N/A   Clear
2:30 PM 28.4 °F 15.8 °F 5.0 °F 37% 29.95 in - ENE 18.4 mph - N/A   Clear
3:00 PM 28.4 °F 15.4 °F 5.0 °F 37% 29.95 in - East 19.6 mph - N/A   Clear
3:30 PM 28.4 °F 14.7 °F 5.0 °F 37% 29.95 in - East 21.9 mph - N/A   Clear
4:00 PM 28.4 °F 15.4 °F 5.0 °F 37% 29.95 in - ENE 19.6 mph 33.4 mph N/A   Clear
4:30 PM 26.6 °F 12.7 °F 5.0 °F 40% 29.95 in 6.2 mi East 20.7 mph - N/A   Mostly Cloudy
5:00 PM 26.6 °F 13.4 °F 6.8 °F 43% 29.95 in - ENE 18.4 mph 29.9 mph N/A   Clear
5:30 PM 26.6 °F 13.4 °F 6.8 °F 43% 29.92 in - East 18.4 mph - N/A   Clear
6:00 PM 24.8 °F 11.5 °F 6.8 °F 46% 29.95 in - ENE 17.3 mph 28.8 mph N/A   Clear
6:30 PM 24.8 °F 11.1 °F 6.8 °F 46% 29.95 in 6.2 mi ENE 18.4 mph - N/A   Partly Cloudy
7:00 PM 23.0 °F 10.1 °F 6.8 °F 50% 29.95 in 6.2 mi ENE 15.0 mph - N/A   Partly Cloudy
7:30 PM 23.0 °F 9.2 °F 6.8 °F 50% 29.95 in - ENE 17.3 mph - N/A   Clear
8:00 PM 23.0 °F 10.1 °F 8.6 °F 54% 29.95 in 6.2 mi ENE 15.0 mph - N/A   Partly Cloudy
9:00 PM 21.2 °F 6.8 °F 8.6 °F 58% 29.95 in 6.2 mi ENE 17.3 mph - N/A   Partly Cloudy
10:00 PM 21.2 °F 6.8 °F 8.6 °F 58% 29.95 in 6.2 mi East 17.3 mph - N/A   Partly Cloudy
11:00 PM 19.4 °F 5.5 °F 10.4 °F 68% 29.95 in 6.2 mi East 15.0 mph - N/A   Partly Cloudy